EW9532 Weather Reports


time (UTC)temp
C
wind
direction
speed
KPH
gust
KPH
rain 1hr
cm
rain 24hr
cm
rain mn
cm
humidity
%
barometer
mb
20260510133928 25 50 0.0 6.4 0.00 4.83 0.00 92 1012.9
20260510133648 25 236 0.0 0.0 0.00 4.83 0.00 93 1012.9
20260510133052 24 0 0.0 0.0 0.00 4.83 0.00 93 1013.1
20260510132944 24 26 0.0 0.0 0.00 4.83 0.00 94 1012.8
20260510132939 25 236 0.0 0.0 0.00 4.83 0.00 94 1012.9
20260510132932 25 236 0.0 0.0 0.00 4.83 0.00 93 1012.9
20260510131603 24 0 0.0 0.0 0.00 4.83 0.00 94 1013.0
20260510131427 24 26 0.0 0.0 0.00 4.83 0.00 94 1012.7
20260510130912 24 26 0.0 0.0 0.00 4.83 0.00 94 1012.8
20260510130411 24 26 0.0 0.0 0.00 4.83 0.00 94 1012.7
20260510130049 23 0 0.0 0.0 0.00 4.83 0.00 94 1012.9
20260510125907 24 26 0.0 0.0 0.00 4.83 0.00 94 1012.6
20260510125406 24 26 0.0 0.0 0.00 4.83 0.00 95 1012.5
20260510125124 24 26 0.0 0.0 0.00 4.83 0.00 95 1012.4
20260510124608 23 0 0.0 0.0 0.00 4.83 0.00 94 1012.6
20260510124404 24 26 0.0 0.0 0.00 4.83 0.00 95 1012.5
20260510123903 23 26 0.0 0.0 0.00 4.83 0.00 95 1012.3
20260510123624 23 26 0.0 0.0 0.00 4.83 0.00 95 1012.4
20260510123049 23 0 0.0 0.0 0.00 4.83 0.00 94 1012.5
20260510122902 23 26 0.0 0.0 0.00 4.83 0.00 95 1012.3
20260510122402 23 26 0.0 0.0 0.00 4.83 0.00 95 1012.4
20260510121903 23 26 0.0 0.0 0.00 4.83 0.00 95 1012.3
20260510121547 23 0 0.0 0.0 0.00 4.83 0.00 95 1012.4
20260510121402 23 26 0.0 0.0 0.00 4.83 0.00 95 1012.1
20260510120902 23 26 0.0 0.0 0.00 4.83 0.00 95 1012.1
20260510120402 23 26 0.0 0.0 0.00 4.83 0.00 95 1012.0
20260510120047 23 0 0.0 1.6 0.00 4.83 0.00 95 1012.1
20260510115903 23 26 0.0 0.0 0.00 4.83 0.00 95 1011.8
20260510115402 23 338 0.0 0.0 0.00 4.83 0.00 95 1011.7
20260510114903 23 338 0.0 0.0 0.00 4.83 0.00 95 1011.7
20260510114545 23 0 0.0 0.0 0.00 5.03 0.00 94 1011.9
20260510114402 23 338 0.0 0.0 0.00 4.83 0.00 95 1011.7
20260510113900 23 338 0.0 0.0 0.00 4.83 0.00 95 1011.6
20260510113400 23 338 0.0 0.0 0.00 4.85 0.00 95 1011.4
20260510113050 23 0 0.0 0.0 0.00 5.03 0.00 94 1011.6
20260510112902 23 338 0.0 0.0 0.00 4.85 0.00 95 1011.4
20260510112401 23 338 0.0 0.0 0.00 4.93 0.00 95 1011.3
20260510111901 23 338 0.0 0.0 0.00 4.98 0.00 95 1011.4
20260510111603 23 0 0.0 0.0 0.00 5.03 0.00 94 1011.8
20260510111401 23 338 0.0 0.0 0.00 5.00 0.00 94 1011.6
20260510110900 23 338 0.0 0.0 0.00 5.00 0.00 94 1011.4
20260510110401 23 338 0.0 0.0 0.00 5.03 0.00 94 1011.6
20260510110049 23 0 0.0 0.0 0.00 5.03 0.00 94 1011.6
20260510105903 23 338 0.0 0.0 0.00 5.03 0.00 94 1011.4
20260510105403 23 338 0.0 0.0 0.00 5.03 0.00 94 1011.3
20260510104902 23 338 0.0 0.0 0.00 5.03 0.00 94 1011.2
20260510104601 23 0 0.0 0.0 0.00 5.03 0.00 93 1011.6
20260510104402 23 338 0.0 0.0 0.00 5.03 0.00 94 1011.2
20260510104123 23 338 0.0 0.0 0.00 5.03 0.00 94 1011.3
20260510103402 23 338 0.0 0.0 0.00 5.03 0.00 94 1011.3
20260510103046 23 0 0.0 0.0 0.00 5.03 0.00 93 1011.7
20260510102902 23 338 0.0 0.0 0.00 5.03 0.00 94 1011.4
20260510102403 23 338 0.0 0.0 0.00 5.03 0.00 94 1011.2
20260510101903 23 338 0.0 0.0 0.00 5.03 0.00 94 1011.2
20260510101545 23 0 0.0 0.0 0.00 5.03 0.00 93 1011.5
20260510101402 23 338 0.0 0.0 0.00 5.03 0.00 94 1011.2
20260510100902 23 338 0.0 0.0 0.00 5.03 0.00 94 1011.3
20260510100402 23 338 0.0 0.0 0.00 5.03 0.00 94 1011.2
20260510100050 23 0 0.0 0.0 0.00 5.03 0.00 93 1011.4
20260510095903 23 338 0.0 0.0 0.00 5.03 0.00 94 1011.1
20260510095403 23 338 0.0 0.0 0.00 5.03 0.00 94 1011.1
20260510095120 23 338 0.0 0.0 0.00 5.03 0.00 94 1011.1
20260510094550 23 0 0.0 0.0 0.00 5.03 0.00 93 1011.4
20260510094403 23 338 0.0 0.0 0.00 5.03 0.00 94 1011.1
20260510094148 23 338 0.0 0.0 0.00 5.03 0.00 94 1011.1
20260510093403 23 338 0.0 0.0 0.00 5.03 0.00 94 1011.2
20260510093049 23 0 0.0 0.0 0.00 5.03 0.00 94 1011.5
20260510092903 23 338 0.0 0.0 0.00 5.03 0.00 94 1011.2
20260510092403 23 338 0.0 0.0 0.00 5.03 0.00 94 1011.2
20260510092125 23 338 0.0 0.0 0.00 5.03 0.00 94 1011.1
20260510091555 23 0 0.0 0.0 0.00 5.03 0.00 93 1011.4
20260510091400 23 338 0.0 0.0 0.00 5.03 0.00 94 1011.2
20260510090859 23 338 0.0 0.0 0.00 5.03 0.00 93 1011.3
20260510090359 23 338 0.0 0.0 0.00 5.03 0.00 93 1011.3
20260510085855 23 338 0.0 0.0 0.00 5.03 0.00 94 1011.2
20260510085354 23 338 0.0 0.0 0.00 5.03 0.00 93 1011.2
20260510084849 23 338 0.0 0.0 0.00 5.03 0.00 93 1011.2
20260510084554 23 0 0.0 0.0 0.00 5.03 0.00 93 1011.5
20260510084342 23 338 0.0 0.0 0.00 5.03 0.00 93 1011.2
20260510083836 23 338 0.0 0.0 0.00 5.03 0.00 93 1011.3
20260510083336 23 338 0.0 0.0 0.00 5.03 0.00 93 1011.4
20260510083051 23 0 0.0 0.0 0.00 5.03 0.00 93 1011.9
20260510082830 23 338 0.0 0.0 0.00 5.03 0.00 93 1011.6
20260510082329 23 338 0.0 0.0 0.00 5.03 0.00 93 1011.7
20260510081829 23 338 0.0 0.0 0.00 5.03 0.00 93 1011.8
20260510081550 23 0 0.0 0.0 0.00 5.03 0.00 92 1012.1
20260510081329 23 338 0.0 0.0 0.00 5.03 0.00 93 1011.9
20260510080829 23 338 0.0 0.0 0.00 5.03 0.00 93 1012.0
20260510080329 23 338 0.0 0.0 0.00 5.03 0.00 93 1012.1
20260510080058 23 0 0.0 0.0 0.00 5.03 0.00 92 1012.5
20260510075828 24 338 0.0 0.0 0.00 5.03 0.00 93 1012.1
20260510075329 24 338 0.0 0.0 0.00 5.03 0.00 93 1012.2
20260510074830 24 338 0.0 0.0 0.00 5.03 0.00 93 1012.3
20260510074550 23 0 0.0 0.0 0.00 5.03 0.00 92 1012.4
20260510074329 24 338 0.0 0.0 0.00 5.03 0.00 92 1012.4
20260510073829 24 338 0.0 0.0 0.00 5.03 0.00 92 1012.3
20260510073329 24 338 0.0 0.0 0.00 5.03 0.00 92 1012.2
20260510073051 23 0 0.0 0.0 0.00 5.03 0.00 92 1012.5
20260510072828 24 338 0.0 0.0 0.00 5.03 0.00 92 1012.3
20260510072331 24 338 0.0 0.0 0.00 5.03 0.00 92 1012.3
20260510071830 24 338 0.0 1.6 0.00 5.03 0.00 92 1012.3
20260510071545 23 0 0.0 1.6 0.00 5.03 0.00 92 1012.4
20260510071331 24 338 0.0 1.6 0.00 5.03 0.00 92 1012.2
20260510070830 24 142 0.0 1.6 0.00 5.03 0.00 92 1012.2
20260510070329 24 316 0.0 1.6 0.00 5.03 0.00 92 1012.2
20260510070057 23 0 0.0 1.6 0.00 5.03 0.00 92 1012.2
20260510065828 24 289 0.0 1.6 0.00 5.03 0.00 92 1012.0
20260510065329 24 230 0.0 0.0 0.00 5.03 0.00 92 1012.0
20260510064829 24 230 0.0 3.2 0.00 5.03 0.00 92 1012.1
20260510064607 24 0 0.0 4.8 0.00 5.03 0.00 91 1012.3
20260510064329 24 230 0.0 6.4 0.00 5.03 0.00 92 1012.0
20260510063828 24 224 0.0 6.4 0.00 5.03 0.00 92 1012.2
20260510063812 24 100 0.0 0.0 0.00 5.03 0.00 92 1012.1
20260510063052 24 0 0.0 1.6 0.00 5.03 0.00 91 1012.4
20260510062829 24 211 0.0 0.0 0.00 5.03 0.00 92 1012.3
20260510062330 24 205 0.0 0.0 0.00 5.03 0.00 92 1012.2
20260510061830 24 226 0.0 0.0 0.00 5.03 0.00 91 1012.1
20260510061552 24 0 0.0 0.0 0.00 5.03 0.00 91 1012.4
20260510061330 24 226 0.0 0.0 0.00 5.03 0.00 91 1012.3
20260510060831 24 226 0.0 1.6 0.00 5.03 0.00 91 1012.2
20260510060330 25 226 0.0 1.6 0.00 5.03 0.00 91 1012.4
20260510060059 25 300 0.0 0.0 0.00 5.03 0.00 91 1012.2
20260510060055 24 0 0.0 1.6 0.00 5.03 0.00 91 1012.5
20260510055329 25 283 0.0 0.0 0.00 5.03 0.00 91 1012.3
20260510055107 25 283 0.0 0.0 0.00 5.03 0.00 90 1012.4
20260510055026 25 283 0.0 0.0 0.00 5.03 0.00 91 1012.3
20260510054549 24 0 0.0 0.0 0.00 5.03 0.00 90 1012.4
20260510053828 25 283 0.0 0.0 0.00 5.03 0.00 90 1012.4
20260510053329 25 283 0.0 4.8 0.00 5.03 0.00 90 1012.4
20260510053050 25 0 0.0 3.2 0.00 5.03 0.00 89 1012.5
20260510052828 25 235 0.0 4.8 0.00 5.03 0.00 90 1012.5
20260510052330 25 56 0.0 3.2 0.00 5.03 0.00 90 1012.5
20260510051831 25 288 0.0 6.4 0.00 5.03 0.00 90 1012.5
20260510051605 25 0 0.0 6.4 0.00 5.03 0.00 89 1012.5
20260510051330 25 32 0.0 6.4 0.00 5.03 0.00 89 1012.2
20260510050830 25 26 0.0 3.2 0.00 5.03 0.00 89 1012.4
20260510050330 25 79 0.0 3.2 0.00 5.03 0.00 89 1012.3
20260510050055 25 0 0.0 3.2 0.00 5.03 0.00 89 1012.5
20260510045828 25 6 0.0 3.2 0.00 5.03 5.03 89 1012.4
20260510045328 25 250 0.0 0.0 0.00 5.03 5.03 89 1012.4
20260510044828 25 250 0.0 1.6 0.00 5.05 5.03 89 1012.4
20260510044608 25 0 0.0 1.6 0.00 5.08 5.03 88 1012.6
20260510044329 25 250 0.0 1.6 0.00 5.05 5.03 88 1012.3
20260510043829 25 144 0.0 4.8 0.00 5.08 5.03 88 1012.4
20260510043328 25 144 0.0 4.8 0.00 5.08 5.03 88 1012.5
20260510043052 25 0 0.0 0.0 0.00 5.08 5.03 87 1012.6
20260510042828 25 158 0.0 1.6 0.00 5.08 5.03 87 1012.5
20260510042331 25 159 0.0 0.0 0.00 5.08 5.03 87 1012.4
20260510041831 25 159 0.0 0.0 0.00 5.08 5.03 87 1012.5
20260510041617 25 159 0.0 0.0 0.00 5.08 5.03 86 1012.5
20260510041604 25 0 0.0 0.0 0.00 5.08 5.03 86 1012.7
20260510040830 25 72 0.0 0.0 0.00 5.08 5.03 86 1012.5
20260510040554 25 72 0.0 3.2 0.00 5.08 5.03 86 1012.4
20260510040056 25 0 0.0 1.6 0.00 5.08 5.03 85 1012.6
20260510035828 26 72 0.0 3.2 0.00 5.08 5.03 86 1012.5
20260510035329 26 336 0.0 3.2 0.00 5.08 5.03 85 1012.5
20260510034829 26 268 0.0 1.6 0.00 5.08 5.03 85 1012.4
20260510034559 25 0 0.0 3.2 0.00 5.08 5.03 85 1012.5
20260510034329 26 268 0.0 1.6 0.00 5.08 5.03 85 1012.2
20260510033829 26 246 0.0 0.0 0.00 5.08 5.03 85 1012.2
20260510033329 26 246 0.0 0.0 0.00 5.08 5.03 85 1012.0
20260510033054 25 0 0.0 0.0 0.00 5.08 5.03 84 1012.2
20260510033051 26 246 0.0 0.0 0.00 5.08 5.03 84 1012.0
20260510032331 26 246 0.0 1.6 0.00 5.08 5.03 84 1012.0
20260510031830 26 246 0.0 3.2 0.00 5.08 5.03 84 1011.9
20260510031557 25 0 0.0 3.2 0.00 5.08 5.03 83 1012.0
20260510031330 26 205 0.0 3.2 0.00 5.08 5.03 84 1011.8
20260510030831 26 229 0.0 0.0 0.00 5.08 5.03 83 1011.7
20260510030330 26 229 0.0 0.0 0.00 5.08 5.03 83 1011.6
20260510030105 26 0 0.0 1.6 0.00 5.08 5.03 82 1011.8
20260510025829 26 97 0.0 1.6 0.00 5.08 5.03 82 1011.7
20260510025329 26 181 0.0 1.6 0.00 5.08 5.03 82 1011.6
20260510024829 26 330 0.0 0.0 0.00 5.08 5.03 82 1011.3
20260510024553 26 0 0.0 1.6 0.00 5.08 5.03 81 1011.7
20260510024329 26 330 0.0 1.6 0.00 5.08 5.03 81 1011.3
20260510023829 26 247 0.0 6.4 0.00 5.08 5.03 80 1011.2
20260510023328 26 341 0.0 6.4 0.00 5.08 5.03 80 1011.1
20260510023053 26 0 0.0 3.2 0.00 5.08 5.03 79 1011.5
20260510022828 26 146 0.0 1.6 0.00 5.08 5.03 79 1011.0
20260510022539 26 224 0.0 3.2 0.00 5.08 5.03 78 1011.0
20260510022051 26 263 0.0 9.7 0.00 5.08 5.03 78 1010.8
20260510021552 26 0 0.0 9.7 0.00 5.08 5.03 77 1011.0
20260510021312 27 358 0.0 9.7 0.00 5.08 5.03 78 1010.9
20260510020812 27 348 0.0 4.8 0.00 5.08 5.03 77 1010.9
20260510020313 27 201 0.0 8.0 0.00 5.08 5.03 77 1010.7
20260510020051 26 56 0.0 9.7 0.00 5.08 5.03 76 1011.0
20260510015807 27 276 0.0 8.0 0.00 5.08 5.03 77 1010.7
20260510015306 27 60 0.0 4.8 0.00 5.08 5.03 76 1010.5
20260510014802 27 103 0.0 4.8 0.00 5.08 5.03 76 1010.3
20260510014556 27 0 0.0 4.8 0.00 5.08 5.03 75 1010.6
20260510014303 27 76 0.0 3.2 0.00 5.08 5.03 76 1010.2
20260510013805 27 269 0.0 4.8 0.00 5.08 5.03 76 1010.3
20260510013800 27 143 1.6 9.7 0.00 5.08 5.03 76 1010.2
20260510013053 27 56 0.0 9.7 0.00 5.08 5.03 75 1010.5
20260510012814 27 250 3.2 9.7 0.00 5.08 5.03 76 1010.0
20260510012300 27 337 0.0 4.8 0.00 5.08 5.03 76 1010.2
20260510011801 27 215 0.0 4.8 0.00 5.08 5.03 76 1010.2
20260510011549 27 214 0.0 4.8 0.00 5.08 5.03 75 1010.4
20260510011301 27 241 1.6 4.8 0.00 5.08 5.03 76 1010.1
20260510010801 27 194 0.0 9.7 0.00 5.08 5.03 75 1010.0
20260510010301 27 283 3.2 9.7 0.00 5.08 5.03 75 1009.9
20260510010052 27 39 0.0 8.0 0.00 5.08 5.03 74 1010.2
20260510005801 27 233 0.0 8.0 0.00 5.08 5.03 75 1009.9
20260510005301 27 328 1.6 12.9 0.00 5.08 5.03 74 1009.8
20260510004802 27 251 1.6 12.9 0.00 5.08 5.03 74 1009.8
20260510004749 27 205 1.6 12.9 0.00 5.08 5.03 74 1009.8
20260510004547 27 0 0.0 14.5 0.00 5.08 5.03 74 1010.0
20260510003802 28 337 0.0 12.9 0.00 5.08 5.03 74 1009.7
20260510003549 28 349 1.6 8.0 0.00 5.08 5.03 74 1009.7
20260510003057 27 0 0.0 12.9 0.00 5.08 5.03 73 1009.9
20260510002814 28 191 0.0 14.5 0.00 5.08 5.03 74 1009.7
20260510002747 28 300 3.2 14.5 0.00 5.08 5.03 73 1009.6
20260510002033 28 153 3.2 8.0 0.00 5.08 5.03 73 1009.5
20260510001554 28 0 0.0 8.0 0.00 5.08 5.03 72 1009.7
20260510001302 28 42 0.0 9.7 0.00 5.08 5.03 73 1009.3
20260510001020 28 84 0.0 9.7 0.00 5.08 5.03 73 1009.4
20260510000315 28 233 0.0 9.7 0.00 5.08 5.03 72 1009.4
20260510000058 28 0 0.0 8.0 0.00 5.08 5.03 71 1009.7
20260509235802 28 345 0.0 9.7 0.00 5.08 5.03 71 1009.3
20260509235301 28 263 0.0 11.3 0.00 5.08 5.03 70 1009.4
20260509234801 28 195 3.2 11.3 0.00 5.08 5.03 70 1009.3
20260509234602 28 124 1.6 9.7 0.00 5.08 5.03 69 1009.6
20260509234301 28 243 1.6 9.7 0.00 5.08 5.03 70 1009.3
20260509233801 28 325 1.6 8.0 0.00 5.08 5.03 69 1009.2
20260509233301 28 38 0.0 1.6 0.00 5.08 5.03 70 1009.3
20260509233054 28 0 0.0 11.3 0.00 5.08 5.03 70 1009.5
20260509232801 29 337 0.0 11.3 0.00 5.08 5.03 70 1009.3
20260509232301 29 353 1.6 12.9 0.00 5.08 5.03 70 1009.3
20260509231802 29 243 3.2 12.9 0.00 5.08 5.03 70 1009.1
20260509231609 28 252 1.6 14.5 0.00 5.08 5.03 69 1009.5
20260509231302 29 153 0.0 11.3 0.00 5.08 5.03 70 1009.2
20260509230802 29 143 1.6 9.7 0.00 5.08 5.03 70 1009.2
20260509230302 29 355 0.0 9.7 0.00 5.08 5.03 70 1009.1
20260509230103 29 0 0.0 9.7 0.00 5.08 5.03 70 1009.4
20260509225802 29 338 0.0 9.7 0.00 5.08 5.03 71 1009.1
20260509225305 29 124 3.2 16.1 0.00 5.08 5.03 71 1009.1
20260509225244 29 116 1.6 16.1 0.00 5.08 5.03 71 1009.2
20260509224551 29 0 3.2 14.5 0.00 5.08 5.03 71 1009.5
20260509224303 29 9 6.4 14.5 0.00 5.08 5.03 71 1009.3
20260509223803 30 185 1.6 20.9 0.00 5.08 5.03 71 1009.2
20260509223303 30 186 3.2 20.9 0.00 5.08 5.03 69 1009.2
20260509223051 30 0 0.0 4.8 0.00 5.08 5.03 67 1009.4
20260509222802 30 216 0.0 6.4 0.00 5.08 5.03 67 1009.1
20260509222306 30 90 0.0 6.4 0.00 5.08 5.03 67 1009.0
20260509221755 31 253 0.0 1.6 0.00 5.08 5.03 67 1009.1
20260509221549 31 0 0.0 3.2 0.00 5.08 5.03 66 1009.4
20260509221248 31 272 0.0 3.2 0.00 5.08 5.03 67 1009.2
20260509221003 31 214 0.0 3.2 0.00 5.08 5.03 66 1009.1
20260509220241 31 57 0.0 1.6 0.00 5.08 5.03 66 1009.0
20260509220050 31 0 0.0 1.6 0.00 5.08 5.03 66 1009.4
20260509215738 31 231 0.0 3.2 0.00 5.08 5.03 65 1009.0
20260509215239 31 282 0.0 3.2 0.00 5.08 5.03 66 1009.1
20260509214739 31 62 0.0 1.6 0.00 5.08 5.03 65 1009.2
20260509214545 31 0 0.0 1.6 0.00 5.08 5.03 65 1009.4
20260509214238 32 191 0.0 1.6 0.00 5.08 5.03 65 1009.0
20260509214001 32 288 0.0 0.0 0.00 5.08 5.03 64 1009.0
20260509213502 32 288 0.0 3.2 0.00 5.08 5.03 64 1009.0
20260509213049 32 0 0.0 1.6 0.00 5.08 5.03 63 1009.4
20260509212739 32 288 0.0 3.2 0.00 5.08 5.03 63 1009.1
20260509212232 32 288 0.0 6.4 0.00 5.08 5.03 63 1009.1
20260509211729 32 197 0.0 6.4 0.00 5.08 5.03 63 1009.2
20260509211552 32 0 0.0 6.4 0.00 5.08 5.03 61 1009.5
20260509211230 33 207 0.0 0.0 0.00 5.08 5.03 62 1009.2
20260509210729 33 207 0.0 0.0 0.00 5.08 5.03 64 1009.0
20260509210230 33 207 0.0 0.0 0.00 5.08 5.03 63 1009.1
20260509210105 32 0 0.0 1.6 0.00 5.08 5.03 63 1009.4
20260509205729 32 207 0.0 1.6 0.00 5.08 5.03 63 1009.3
20260509205228 33 205 0.0 1.6 0.00 5.08 5.03 61 1009.2
20260509204948 33 207 0.0 0.0 0.00 5.08 5.03 61 1009.3
20260509204550 33 0 0.0 0.0 0.00 5.08 5.03 62 1009.7
20260509204231 33 21 0.0 0.0 0.00 5.08 5.03 60 1009.4
20260509203730 33 21 0.0 0.0 0.00 5.08 5.03 61 1009.4
20260509203244 33 21 0.0 0.0 0.00 5.08 5.03 62 1009.5
20260509203059 33 0 0.0 1.6 0.00 5.08 5.03 62 1009.8
20260509202730 33 21 0.0 1.6 0.00 5.08 5.03 62 1009.5
20260509202231 33 325 0.0 1.6 0.00 5.08 5.03 61 1009.4
20260509202015 33 114 0.0 0.0 0.00 5.08 5.03 59 1009.5
20260509201557 33 0 0.0 0.0 0.00 5.08 5.03 59 1009.8
20260509201230 33 99 0.0 0.0 0.00 5.08 5.03 59 1009.6
20260509200730 33 99 0.0 1.6 0.00 5.08 5.03 62 1009.7
20260509200231 33 99 0.0 1.6 0.00 5.08 5.03 61 1009.7
20260509200052 33 0 0.0 0.0 0.00 5.08 5.03 62 1010.1
20260509195729 33 196 0.0 0.0 0.00 5.08 5.03 63 1009.7
20260509195229 33 196 0.0 0.0 0.00 5.08 5.03 62 1009.8
20260509194728 33 134 0.0 0.0 0.00 5.08 5.03 61 1009.9
20260509194547 33 0 0.0 1.6 0.00 5.08 5.03 60 1010.2
20260509194230 33 134 0.0 0.0 0.00 5.08 5.03 63 1010.0
20260509193729 32 72 0.0 0.0 0.00 5.08 5.03 63 1010.1
20260509193229 32 72 0.0 0.0 0.00 5.08 5.03 64 1010.3
20260509193053 32 0 0.0 0.0 0.00 5.08 5.03 64 1010.6
20260509192729 32 72 0.0 0.0 0.00 5.08 5.03 64 1010.4
20260509192229 32 72 0.0 0.0 0.00 5.08 5.03 65 1010.4
20260509191729 32 72 0.0 0.0 0.00 5.08 5.03 65 1010.4
20260509191553 32 0 0.0 0.0 0.00 5.08 5.03 65 1010.7
20260509191228 32 72 0.0 0.0 0.00 5.08 5.03 66 1010.4
20260509190726 32 72 0.0 0.0 0.00 5.08 5.03 65 1010.3
20260509190213 31 72 0.0 1.6 0.00 5.08 5.03 65 1010.3
20260509190054 31 0 0.0 1.6 0.00 5.08 5.03 67 1010.6
20260509185930 31 72 0.0 1.6 0.00 5.08 5.03 65 1010.3
20260509185431 32 263 0.0 0.0 0.00 5.08 5.03 64 1010.5
20260509184702 32 263 0.0 0.0 0.00 5.08 5.03 66 1010.5
20260509184556 31 0 0.0 0.0 0.00 5.08 5.03 66 1010.8
20260509184203 31 263 0.0 0.0 0.00 5.08 5.03 65 1010.5
20260509183702 31 263 0.0 0.0 0.00 5.08 5.03 67 1010.6
20260509183202 31 231 0.0 0.0 0.00 5.08 5.03 69 1010.7
20260509183052 30 0 0.0 1.6 0.00 5.08 5.03 68 1011.1
20260509182921 30 231 0.0 0.0 0.00 5.08 5.03 68 1010.9
20260509182202 30 355 0.0 6.4 0.00 5.08 5.03 70 1010.9
20260509181926 30 355 0.0 6.4 0.00 5.08 5.03 69 1011.0
20260509181553 30 0 0.0 6.4 0.00 5.08 5.03 69 1011.2
20260509181202 30 190 0.0 4.8 0.00 5.08 5.03 69 1010.9
20260509180702 30 257 0.0 4.8 0.00 5.08 5.03 72 1010.9
20260509180203 30 127 0.0 4.8 0.00 5.08 5.03 69 1011.0
20260509180100 30 0 0.0 8.0 0.00 5.08 5.03 69 1011.2
20260509175702 30 295 0.0 8.0 0.00 5.08 5.03 72 1011.0
20260509175203 29 77 0.0 8.0 0.00 5.08 5.03 72 1011.1
20260509174702 29 280 0.0 3.2 0.00 5.08 5.03 73 1011.2
20260509174555 28 0 0.0 1.6 0.00 5.08 5.03 72 1011.5
20260509174200 28 301 0.0 4.8 0.00 5.08 5.03 73 1011.3
20260509173949 28 299 0.0 4.8 0.00 5.08 5.03 74 1011.4
20260509173201 28 293 0.0 3.2 0.00 5.08 5.03 75 1011.6
20260509173057 28 0 0.0 4.8 0.00 5.08 5.03 74 1011.7
20260509172701 28 44 0.0 9.7 0.00 5.08 5.03 74 1011.4
20260509172200 28 33 0.0 9.7 0.00 5.08 5.03 75 1011.3
20260509171700 28 150 0.0 8.0 0.00 5.08 5.03 75 1011.4
20260509171549 28 0 0.0 9.7 0.00 5.08 5.03 75 1011.6
20260509171201 28 203 1.6 8.0 0.00 5.08 5.03 75 1011.3
20260509170703 28 254 0.0 8.0 0.00 5.08 5.03 77 1011.2
20260509170203 28 115 0.0 9.7 0.00 5.08 5.03 79 1011.2
20260509170100 27 0 0.0 12.9 0.00 5.08 5.03 78 1011.6
20260509165702 27 278 3.2 11.3 0.00 5.08 5.03 79 1011.2
20260509165426 27 282 3.2 11.3 0.00 5.08 5.03 79 1011.3
20260509164702 27 230 1.6 9.7 0.00 5.08 5.03 79 1011.4
20260509164549 27 0 3.2 17.7 0.00 5.08 5.03 79 1011.7
20260509164201 27 128 1.6 14.5 0.00 5.08 5.03 80 1011.6
20260509163702 26 94 4.8 14.5 0.00 5.08 5.03 80 1011.7
20260509163202 26 215 0.0 11.3 0.00 5.08 5.03 86 1011.7
20260509163102 26 0 1.6 11.3 0.00 5.08 5.03 84 1012.0
20260509162702 26 122 4.8 12.9 0.00 5.08 5.03 85 1011.8
20260509162648 25 53 3.2 12.9 0.00 5.08 5.03 88 1011.9
20260509161702 25 290 3.2 14.5 0.00 5.08 5.03 92 1012.0
20260509161643 24 108 1.6 14.5 0.00 5.08 5.03 97 1012.1
20260509161555 24 103 3.2 14.5 0.00 5.08 5.03 93 1012.2
20260509160702 23 177 3.2 8.0 0.00 5.08 5.03 97 1012.2
20260509160203 22 37 3.2 11.3 0.00 5.08 5.03 98 1012.3
20260509160057 22 233 1.6 11.3 0.00 5.08 5.03 97 1012.5
20260509155702 22 220 1.6 11.3 0.00 5.08 5.03 98 1012.3
20260509155202 22 65 1.6 14.5 0.00 5.08 5.03 98 1012.3
20260509154702 21 191 3.2 14.5 0.00 5.08 5.03 97 1012.2
20260509154558 21 0 4.8 14.5 0.00 5.08 5.03 97 1012.4
20260509154420 21 123 3.2 14.5 0.03 5.08 5.03 97 1012.2
20260509153920 21 131 1.6 9.7 0.10 5.08 5.03 97 1012.3
20260509153202 21 138 3.2 12.9 0.30 5.08 5.03 97 1012.6
20260509153050 21 203 1.6 12.9 0.41 5.08 5.03 97 1012.9
20260509152702 21 295 3.2 12.9 1.04 5.08 5.03 97 1012.8
20260509152201 21 202 1.6 11.3 1.88 5.08 5.03 97 1012.9
20260509151701 21 154 3.2 11.3 2.74 5.08 5.03 97 1012.8
20260509151553 21 352 1.6 11.3 2.90 5.08 5.03 97 1012.9
20260509151201 21 192 3.2 6.4 3.56 5.08 5.03 97 1012.8
20260509150921 21 342 0.0 8.0 4.67 5.08 5.03 97 1012.8
20260509150203 21 137 1.6 9.7 4.78 5.08 5.03 97 1012.8
20260509150106 20 130 0.0 16.1 4.78 5.08 5.03 97 1012.8
20260509145702 21 24 1.6 16.1 4.78 0.30 5.03 97 1012.6
20260509145202 21 317 6.4 17.7 4.78 0.30 5.03 97 1012.7
20260509144702 20 69 6.4 17.7 4.78 0.30 5.03 97 1012.6
20260509144556 20 94 1.6 17.7 4.78 5.08 5.03 97 1012.9
20260509144426 20 313 1.6 12.9 4.75 0.30 5.00 97 1013.0
20260509143703 20 230 1.6 16.1 4.72 0.30 4.90 97 1013.3
20260509143202 20 215 8.0 16.1 4.52 0.30 4.62 97 1013.6
20260509143053 20 179 4.8 19.3 4.39 4.65 4.60 96 1013.8
20260509142702 20 305 3.2 16.1 3.78 0.30 3.86 97 1014.0
20260509142202 20 184 1.6 16.1 2.95 0.30 2.95 96 1014.6
20260509141702 20 75 3.2 14.5 2.08 0.30 2.13 96 1014.9
20260509141552 20 348 1.6 27.4 1.88 2.13 2.08 95 1015.0
20260509141202 20 250 1.6 25.7 1.27 0.30 1.27 95 1014.8
20260509140925 21 287 12.9 25.7 0.15 0.30 0.28 95 1015.2
20260509140201 21 297 11.3 24.1 0.05 0.30 0.25 95 1013.8
20260509140043 21 250 11.3 25.7 0.05 0.30 0.25 95 1014.1
20260509135920 22 339 1.6 14.5 0.05 0.25 0.25 97 1013.6
20260509135201 22 280 0.0 0.0 0.05 0.25 0.25 97 1011.6
20260509134701 22 315 0.0 3.2 0.05 0.25 0.25 97 1011.2
20260509134548 21 0 0.0 8.0 0.05 0.30 0.25 96 1011.6